PWSweather.com
Personal Weather Stations
Station Observations

GerenaES 41860

Lat: 37.530965, Lon: -6.150384

Elevation: 120

Station Type: Vantage VUE

http://meteogerena.blogspot.com.es/

High Low Average
Temperature 58.5°F14.7°C 53.1°F11.7°C 55.0°F12.8°C
Dew Point 50.6°F10.3°C 48.8°F9.3°C 49.4°F9.7°C
Winds 4.0 mph 6.4 kmh Calm Calm 2.0 mph NE3.2 kmh NE
Wind Gusts 8.0 mph12.9 kmh 1.0 mph1.6 kmh 4.0 mph6.4 kmh
Humidity 87% 75% 82%
Pressure 30.14 in1020.7 mb 30.12 in1020.0 mb -
Precipitation 0.02 in0.5 mm - -
Hour Temp Dew Point Humidity Winds Wind Gusts Pressure Precip Precip Rate Daily Precip Total
07:26 PM 58.5°F14.7°C 50.6°F10.3°C 75% 3.0 mph NE4.8 kmh NE 4.0 mph6.4 kmh 30.12 in1020.0 mb 0.00 in0.0 mm 0.00 in0.0 mm 0.02 in0.5 mm
07:28 PM 58.5°F14.7°C 50.6°F10.3°C 75% 3.0 mph NE4.8 kmh NE 4.0 mph6.4 kmh 30.12 in1020.0 mb 0.00 in0.0 mm 0.00 in0.0 mm 0.02 in0.5 mm
07:29 PM 58.5°F14.7°C 50.6°F10.3°C 75% 3.0 mph NE4.8 kmh NE 4.0 mph6.4 kmh 30.12 in1020.0 mb 0.00 in0.0 mm 0.00 in0.0 mm 0.02 in0.5 mm
07:30 PM 58.3°F14.6°C 50.4°F10.2°C 75% 3.0 mph NE4.8 kmh NE 5.0 mph8.0 kmh 30.12 in1020.0 mb 0.00 in0.0 mm 0.00 in0.0 mm 0.02 in0.5 mm
07:32 PM 58.3°F14.6°C 50.4°F10.2°C 75% 3.0 mph NE4.8 kmh NE 7.0 mph11.3 kmh 30.12 in1020.0 mb 0.00 in0.0 mm 0.00 in0.0 mm 0.02 in0.5 mm
07:33 PM 58.1°F14.5°C 50.2°F10.1°C 75% 3.0 mph NE4.8 kmh NE 7.0 mph11.3 kmh 30.12 in1020.0 mb 0.00 in0.0 mm 0.00 in0.0 mm 0.02 in0.5 mm
07:34 PM 58.1°F14.5°C 50.2°F10.1°C 75% 3.0 mph NE4.8 kmh NE 7.0 mph11.3 kmh 30.12 in1020.0 mb 0.00 in0.0 mm 0.00 in0.0 mm 0.02 in0.5 mm
07:35 PM 57.9°F14.4°C 50.0°F10.0°C 75% 3.0 mph NE4.8 kmh NE 7.0 mph11.3 kmh 30.12 in1020.0 mb 0.00 in0.0 mm 0.00 in0.0 mm 0.02 in0.5 mm
07:36 PM 57.9°F14.4°C 50.0°F10.0°C 75% 3.0 mph NE4.8 kmh NE 7.0 mph11.3 kmh 30.12 in1020.0 mb 0.00 in0.0 mm 0.00 in0.0 mm 0.02 in0.5 mm
07:37 PM 57.9°F14.4°C 50.0°F10.0°C 75% 3.0 mph NE4.8 kmh NE 7.0 mph11.3 kmh 30.12 in1020.0 mb 0.00 in0.0 mm 0.00 in0.0 mm 0.02 in0.5 mm
07:38 PM 57.9°F14.4°C 50.0°F10.0°C 75% 3.0 mph NE4.8 kmh NE 7.0 mph11.3 kmh 30.12 in1020.0 mb 0.00 in0.0 mm 0.00 in0.0 mm 0.02 in0.5 mm
07:39 PM 57.7°F14.3°C 49.9°F9.9°C 75% 3.0 mph NE4.8 kmh NE 7.0 mph11.3 kmh 30.13 in1020.3 mb 0.00 in0.0 mm 0.00 in0.0 mm 0.02 in0.5 mm
07:40 PM 57.7°F14.3°C 49.9°F9.9°C 75% 3.0 mph NE4.8 kmh NE 7.0 mph11.3 kmh 30.12 in1020.0 mb 0.00 in0.0 mm 0.00 in0.0 mm 0.02 in0.5 mm
07:41 PM 57.7°F14.3°C 49.9°F9.9°C 75% 3.0 mph NE4.8 kmh NE 6.0 mph9.7 kmh 30.13 in1020.3 mb 0.00 in0.0 mm 0.00 in0.0 mm 0.02 in0.5 mm
07:42 PM 57.7°F14.3°C 49.9°F9.9°C 75% 3.0 mph NE4.8 kmh NE 7.0 mph11.3 kmh 30.13 in1020.3 mb 0.00 in0.0 mm 0.00 in0.0 mm 0.02 in0.5 mm
07:43 PM 57.7°F14.3°C 49.9°F9.9°C 75% 3.0 mph NE4.8 kmh NE 7.0 mph11.3 kmh 30.13 in1020.3 mb 0.00 in0.0 mm 0.00 in0.0 mm 0.02 in0.5 mm
07:44 PM 57.6°F14.2°C 49.7°F9.8°C 75% 3.0 mph NE4.8 kmh NE 7.0 mph11.3 kmh 30.13 in1020.3 mb 0.00 in0.0 mm 0.00 in0.0 mm 0.02 in0.5 mm
07:45 PM 57.6°F14.2°C 49.7°F9.8°C 75% 4.0 mph NE6.4 kmh NE 7.0 mph11.3 kmh 30.13 in1020.3 mb 0.00 in0.0 mm 0.00 in0.0 mm 0.02 in0.5 mm
07:46 PM 57.6°F14.2°C 49.7°F9.8°C 75% 4.0 mph NE6.4 kmh NE 7.0 mph11.3 kmh 30.13 in1020.3 mb 0.00 in0.0 mm 0.00 in0.0 mm 0.02 in0.5 mm
07:47 PM 57.6°F14.2°C 49.7°F9.8°C 75% 4.0 mph NE6.4 kmh NE 7.0 mph11.3 kmh 30.13 in1020.3 mb 0.00 in0.0 mm 0.00 in0.0 mm 0.02 in0.5 mm
07:48 PM 57.6°F14.2°C 49.7°F9.8°C 75% 4.0 mph NE6.4 kmh NE 7.0 mph11.3 kmh 30.13 in1020.3 mb 0.00 in0.0 mm 0.00 in0.0 mm 0.02 in0.5 mm
07:49 PM 57.4°F14.1°C 49.5°F9.7°C 75% 4.0 mph NE6.4 kmh NE 7.0 mph11.3 kmh 30.13 in1020.3 mb 0.00 in0.0 mm 0.00 in0.0 mm 0.02 in0.5 mm
07:50 PM 57.4°F14.1°C 49.5°F9.7°C 75% 4.0 mph NE6.4 kmh NE 8.0 mph12.9 kmh 30.13 in1020.3 mb 0.00 in0.0 mm 0.00 in0.0 mm 0.02 in0.5 mm
07:51 PM 57.4°F14.1°C 49.9°F9.9°C 76% 4.0 mph NE6.4 kmh NE 8.0 mph12.9 kmh 30.13 in1020.3 mb 0.00 in0.0 mm 0.00 in0.0 mm 0.02 in0.5 mm
07:52 PM 57.4°F14.1°C 49.9°F9.9°C 76% 4.0 mph NE6.4 kmh NE 8.0 mph12.9 kmh 30.13 in1020.3 mb 0.00 in0.0 mm 0.00 in0.0 mm 0.02 in0.5 mm
07:53 PM 57.2°F14.0°C 49.7°F9.8°C 76% 4.0 mph NE6.4 kmh NE 8.0 mph12.9 kmh 30.13 in1020.3 mb 0.00 in0.0 mm 0.00 in0.0 mm 0.02 in0.5 mm
07:54 PM 57.0°F13.9°C 49.5°F9.7°C 76% 4.0 mph NE6.4 kmh NE 8.0 mph12.9 kmh 30.13 in1020.3 mb 0.00 in0.0 mm 0.00 in0.0 mm 0.02 in0.5 mm
07:55 PM 57.0°F13.9°C 49.5°F9.7°C 76% 4.0 mph NE6.4 kmh NE 8.0 mph12.9 kmh 30.13 in1020.3 mb 0.00 in0.0 mm 0.00 in0.0 mm 0.02 in0.5 mm
07:56 PM 57.0°F13.9°C 49.5°F9.7°C 76% 4.0 mph NE6.4 kmh NE 8.0 mph12.9 kmh 30.13 in1020.3 mb 0.00 in0.0 mm 0.00 in0.0 mm 0.02 in0.5 mm
07:57 PM 57.0°F13.9°C 49.5°F9.7°C 76% 4.0 mph NE6.4 kmh NE 8.0 mph12.9 kmh 30.13 in1020.3 mb 0.00 in0.0 mm 0.00 in0.0 mm 0.02 in0.5 mm
07:58 PM 56.8°F13.8°C 49.7°F9.8°C 77% 4.0 mph NE6.4 kmh NE 8.0 mph12.9 kmh 30.13 in1020.3 mb 0.00 in0.0 mm 0.00 in0.0 mm 0.02 in0.5 mm
07:59 PM 56.8°F13.8°C 49.7°F9.8°C 77% 4.0 mph NE6.4 kmh NE 8.0 mph12.9 kmh 30.13 in1020.3 mb 0.00 in0.0 mm 0.00 in0.0 mm 0.02 in0.5 mm
08:00 PM 56.8°F13.8°C 49.7°F9.8°C 77% 4.0 mph NE6.4 kmh NE 6.0 mph9.7 kmh 30.13 in1020.3 mb 0.00 in0.0 mm 0.00 in0.0 mm 0.02 in0.5 mm
08:01 PM 56.8°F13.8°C 49.7°F9.8°C 77% 3.0 mph NE4.8 kmh NE 6.0 mph9.7 kmh 30.13 in1020.3 mb 0.00 in0.0 mm 0.00 in0.0 mm 0.02 in0.5 mm
08:02 PM 56.7°F13.7°C 49.5°F9.7°C 77% 3.0 mph NE4.8 kmh NE 6.0 mph9.7 kmh 30.13 in1020.3 mb 0.00 in0.0 mm 0.00 in0.0 mm 0.02 in0.5 mm
08:03 PM 56.7°F13.7°C 49.5°F9.7°C 77% 3.0 mph NE4.8 kmh NE 5.0 mph8.0 kmh 30.13 in1020.3 mb 0.00 in0.0 mm 0.00 in0.0 mm 0.02 in0.5 mm
08:04 PM 56.7°F13.7°C 49.5°F9.7°C 77% 3.0 mph NE4.8 kmh NE 5.0 mph8.0 kmh 30.13 in1020.3 mb 0.00 in0.0 mm 0.00 in0.0 mm 0.02 in0.5 mm
08:05 PM 56.7°F13.7°C 49.5°F9.7°C 77% 3.0 mph NE4.8 kmh NE 5.0 mph8.0 kmh 30.13 in1020.3 mb 0.00 in0.0 mm 0.00 in0.0 mm 0.02 in0.5 mm
08:06 PM 56.7°F13.7°C 49.5°F9.7°C 77% 3.0 mph NE4.8 kmh NE 5.0 mph8.0 kmh 30.13 in1020.3 mb 0.00 in0.0 mm 0.00 in0.0 mm 0.02 in0.5 mm
08:07 PM 56.5°F13.6°C 49.7°F9.8°C 78% 3.0 mph NE4.8 kmh NE 5.0 mph8.0 kmh 30.13 in1020.3 mb 0.00 in0.0 mm 0.00 in0.0 mm 0.02 in0.5 mm
08:08 PM 56.5°F13.6°C 49.7°F9.8°C 78% 3.0 mph NE4.8 kmh NE 5.0 mph8.0 kmh 30.13 in1020.3 mb 0.00 in0.0 mm 0.00 in0.0 mm 0.02 in0.5 mm
08:09 PM 56.5°F13.6°C 49.7°F9.8°C 78% 3.0 mph NE4.8 kmh NE 5.0 mph8.0 kmh 30.13 in1020.3 mb 0.00 in0.0 mm 0.00 in0.0 mm 0.02 in0.5 mm
08:10 PM 56.5°F13.6°C 49.7°F9.8°C 78% 3.0 mph NE4.8 kmh NE 5.0 mph8.0 kmh 30.13 in1020.3 mb 0.00 in0.0 mm 0.00 in0.0 mm 0.02 in0.5 mm
08:11 PM 56.5°F13.6°C 49.7°F9.8°C 78% 3.0 mph NE4.8 kmh NE 4.0 mph6.4 kmh 30.13 in1020.3 mb 0.00 in0.0 mm 0.00 in0.0 mm 0.02 in0.5 mm
08:12 PM 56.3°F13.5°C 49.5°F9.7°C 78% 3.0 mph NE4.8 kmh NE 4.0 mph6.4 kmh 30.13 in1020.3 mb 0.00 in0.0 mm 0.00 in0.0 mm 0.02 in0.5 mm
08:13 PM 56.3°F13.5°C 49.5°F9.7°C 78% 3.0 mph NE4.8 kmh NE 4.0 mph6.4 kmh 30.13 in1020.3 mb 0.00 in0.0 mm 0.00 in0.0 mm 0.02 in0.5 mm
08:14 PM 56.1°F13.4°C 49.4°F9.7°C 78% 3.0 mph NE4.8 kmh NE 4.0 mph6.4 kmh 30.14 in1020.7 mb 0.00 in0.0 mm 0.00 in0.0 mm 0.02 in0.5 mm
08:15 PM 56.1°F13.4°C 49.4°F9.7°C 78% 2.0 mph NE3.2 kmh NE 4.0 mph6.4 kmh 30.13 in1020.3 mb 0.00 in0.0 mm 0.00 in0.0 mm 0.02 in0.5 mm
08:16 PM 56.1°F13.4°C 49.4°F9.7°C 78% 2.0 mph NE3.2 kmh NE 4.0 mph6.4 kmh 30.13 in1020.3 mb 0.00 in0.0 mm 0.00 in0.0 mm 0.02 in0.5 mm
08:17 PM 56.1°F13.4°C 49.7°F9.8°C 79% 2.0 mph NE3.2 kmh NE 4.0 mph6.4 kmh 30.14 in1020.7 mb 0.00 in0.0 mm 0.00 in0.0 mm 0.02 in0.5 mm
08:18 PM 56.1°F13.4°C 49.7°F9.8°C 79% 2.0 mph NE3.2 kmh NE 4.0 mph6.4 kmh 30.13 in1020.3 mb 0.00 in0.0 mm 0.00 in0.0 mm 0.02 in0.5 mm
08:19 PM 55.9°F13.3°C 49.5°F9.7°C 79% 2.0 mph NE3.2 kmh NE 4.0 mph6.4 kmh 30.14 in1020.7 mb 0.00 in0.0 mm 0.00 in0.0 mm 0.02 in0.5 mm
08:20 PM 55.9°F13.3°C 49.5°F9.7°C 79% 2.0 mph NE3.2 kmh NE 4.0 mph6.4 kmh 30.13 in1020.3 mb 0.00 in0.0 mm 0.00 in0.0 mm 0.02 in0.5 mm
08:21 PM 55.9°F13.3°C 49.5°F9.7°C 79% 2.0 mph NE3.2 kmh NE 4.0 mph6.4 kmh 30.14 in1020.7 mb 0.00 in0.0 mm 0.00 in0.0 mm 0.02 in0.5 mm
08:22 PM 55.9°F13.3°C 49.5°F9.7°C 79% 2.0 mph NE3.2 kmh NE 4.0 mph6.4 kmh 30.14 in1020.7 mb 0.00 in0.0 mm 0.00 in0.0 mm 0.02 in0.5 mm
08:23 PM 55.9°F13.3°C 49.5°F9.7°C 79% 2.0 mph NE3.2 kmh NE 4.0 mph6.4 kmh 30.13 in1020.3 mb 0.00 in0.0 mm 0.00 in0.0 mm 0.02 in0.5 mm
08:24 PM 55.9°F13.3°C 49.5°F9.7°C 79% 2.0 mph NE3.2 kmh NE 4.0 mph6.4 kmh 30.14 in1020.7 mb 0.00 in0.0 mm 0.00 in0.0 mm 0.02 in0.5 mm
08:25 PM 55.8°F13.2°C 49.3°F9.6°C 79% 2.0 mph NE3.2 kmh NE 4.0 mph6.4 kmh 30.14 in1020.7 mb 0.00 in0.0 mm 0.00 in0.0 mm 0.02 in0.5 mm
08:26 PM 55.8°F13.2°C 49.3°F9.6°C 79% 2.0 mph NE3.2 kmh NE 4.0 mph6.4 kmh 30.13 in1020.3 mb 0.00 in0.0 mm 0.00 in0.0 mm 0.02 in0.5 mm
08:27 PM 55.8°F13.2°C 49.3°F9.6°C 79% 2.0 mph NE3.2 kmh NE 4.0 mph6.4 kmh 30.13 in1020.3 mb 0.00 in0.0 mm 0.00 in0.0 mm 0.02 in0.5 mm
08:28 PM 55.8°F13.2°C 49.3°F9.6°C 79% 2.0 mph NE3.2 kmh NE 4.0 mph6.4 kmh 30.13 in1020.3 mb 0.00 in0.0 mm 0.00 in0.0 mm 0.02 in0.5 mm
08:29 PM 55.8°F13.2°C 49.3°F9.6°C 79% 2.0 mph NE3.2 kmh NE 4.0 mph6.4 kmh 30.13 in1020.3 mb 0.00 in0.0 mm 0.00 in0.0 mm 0.02 in0.5 mm
08:30 PM 55.6°F13.1°C 49.5°F9.7°C 80% 2.0 mph NE3.2 kmh NE 4.0 mph6.4 kmh 30.14 in1020.7 mb 0.00 in0.0 mm 0.00 in0.0 mm 0.02 in0.5 mm
08:31 PM 55.6°F13.1°C 49.5°F9.7°C 80% 2.0 mph NE3.2 kmh NE 4.0 mph6.4 kmh 30.13 in1020.3 mb 0.00 in0.0 mm 0.00 in0.0 mm 0.02 in0.5 mm
08:32 PM 55.6°F13.1°C 49.5°F9.7°C 80% 2.0 mph NE3.2 kmh NE 4.0 mph6.4 kmh 30.13 in1020.3 mb 0.00 in0.0 mm 0.00 in0.0 mm 0.02 in0.5 mm
08:33 PM 55.6°F13.1°C 49.5°F9.7°C 80% 2.0 mph NE3.2 kmh NE 4.0 mph6.4 kmh 30.13 in1020.3 mb 0.00 in0.0 mm 0.00 in0.0 mm 0.02 in0.5 mm
08:34 PM 55.4°F13.0°C 49.3°F9.6°C 80% 2.0 mph NE3.2 kmh NE 4.0 mph6.4 kmh 30.13 in1020.3 mb 0.00 in0.0 mm 0.00 in0.0 mm 0.02 in0.5 mm
08:35 PM 55.4°F13.0°C 49.3°F9.6°C 80% 2.0 mph NE3.2 kmh NE 4.0 mph6.4 kmh 30.14 in1020.7 mb 0.00 in0.0 mm 0.00 in0.0 mm 0.02 in0.5 mm
08:36 PM 55.2°F12.9°C 49.2°F9.6°C 80% 2.0 mph NE3.2 kmh NE 4.0 mph6.4 kmh 30.13 in1020.3 mb 0.00 in0.0 mm 0.00 in0.0 mm 0.02 in0.5 mm
08:37 PM 55.2°F12.9°C 49.2°F9.6°C 80% 2.0 mph NE3.2 kmh NE 4.0 mph6.4 kmh 30.13 in1020.3 mb 0.00 in0.0 mm 0.00 in0.0 mm 0.02 in0.5 mm
08:38 PM 55.2°F12.9°C 49.2°F9.6°C 80% 2.0 mph NE3.2 kmh NE 5.0 mph8.0 kmh 30.13 in1020.3 mb 0.00 in0.0 mm 0.00 in0.0 mm 0.02 in0.5 mm
08:39 PM 55.2°F12.9°C 49.5°F9.7°C 81% 2.0 mph NE3.2 kmh NE 5.0 mph8.0 kmh 30.13 in1020.3 mb 0.00 in0.0 mm 0.00 in0.0 mm 0.02 in0.5 mm
08:40 PM 55.0°F12.8°C 49.3°F9.6°C 81% 2.0 mph NE3.2 kmh NE 5.0 mph8.0 kmh 30.13 in1020.3 mb 0.00 in0.0 mm 0.00 in0.0 mm 0.02 in0.5 mm
08:42 PM 55.0°F12.8°C 49.3°F9.6°C 81% 2.0 mph NE3.2 kmh NE 5.0 mph8.0 kmh 30.14 in1020.7 mb 0.00 in0.0 mm 0.00 in0.0 mm 0.02 in0.5 mm
08:43 PM 55.0°F12.8°C 49.3°F9.6°C 81% 2.0 mph NE3.2 kmh NE 5.0 mph8.0 kmh 30.14 in1020.7 mb 0.00 in0.0 mm 0.00 in0.0 mm 0.02 in0.5 mm
08:44 PM 54.9°F12.7°C 49.1°F9.5°C 81% 2.0 mph NE3.2 kmh NE 5.0 mph8.0 kmh 30.14 in1020.7 mb 0.00 in0.0 mm 0.00 in0.0 mm 0.02 in0.5 mm
08:45 PM 54.9°F12.7°C 49.1°F9.5°C 81% 2.0 mph NE3.2 kmh NE 5.0 mph8.0 kmh 30.14 in1020.7 mb 0.00 in0.0 mm 0.00 in0.0 mm 0.02 in0.5 mm
08:46 PM 54.9°F12.7°C 49.1°F9.5°C 81% 2.0 mph NE3.2 kmh NE 5.0 mph8.0 kmh 30.14 in1020.7 mb 0.00 in0.0 mm 0.00 in0.0 mm 0.02 in0.5 mm
08:47 PM 54.9°F12.7°C 49.1°F9.5°C 81% 2.0 mph NE3.2 kmh NE 5.0 mph8.0 kmh 30.14 in1020.7 mb 0.00 in0.0 mm 0.00 in0.0 mm 0.02 in0.5 mm
08:48 PM 54.9°F12.7°C 49.5°F9.7°C 82% 2.0 mph NE3.2 kmh NE 4.0 mph6.4 kmh 30.14 in1020.7 mb 0.00 in0.0 mm 0.00 in0.0 mm 0.02 in0.5 mm
08:49 PM 54.9°F12.7°C 49.5°F9.7°C 82% 2.0 mph NE3.2 kmh NE 4.0 mph6.4 kmh 30.14 in1020.7 mb 0.00 in0.0 mm 0.00 in0.0 mm 0.02 in0.5 mm
08:50 PM 54.9°F12.7°C 49.5°F9.7°C 82% 2.0 mph NE3.2 kmh NE 4.0 mph6.4 kmh 30.13 in1020.3 mb 0.00 in0.0 mm 0.00 in0.0 mm 0.02 in0.5 mm
08:51 PM 54.9°F12.7°C 49.5°F9.7°C 82% 2.0 mph NE3.2 kmh NE 4.0 mph6.4 kmh 30.13 in1020.3 mb 0.00 in0.0 mm 0.00 in0.0 mm 0.02 in0.5 mm
08:52 PM 54.9°F12.7°C 49.5°F9.7°C 82% 2.0 mph NE3.2 kmh NE 4.0 mph6.4 kmh 30.14 in1020.7 mb 0.00 in0.0 mm 0.00 in0.0 mm 0.02 in0.5 mm
08:53 PM 54.7°F12.6°C 49.3°F9.6°C 82% 2.0 mph NE3.2 kmh NE 5.0 mph8.0 kmh 30.13 in1020.3 mb 0.00 in0.0 mm 0.00 in0.0 mm 0.02 in0.5 mm
08:54 PM 54.7°F12.6°C 49.3°F9.6°C 82% 2.0 mph NE3.2 kmh NE 5.0 mph8.0 kmh 30.13 in1020.3 mb 0.00 in0.0 mm 0.00 in0.0 mm 0.02 in0.5 mm
08:55 PM 54.7°F12.6°C 49.3°F9.6°C 82% 2.0 mph NE3.2 kmh NE 5.0 mph8.0 kmh 30.13 in1020.3 mb 0.00 in0.0 mm 0.00 in0.0 mm 0.02 in0.5 mm
08:56 PM 54.7°F12.6°C 49.3°F9.6°C 82% 2.0 mph NE3.2 kmh NE 5.0 mph8.0 kmh 30.13 in1020.3 mb 0.00 in0.0 mm 0.00 in0.0 mm 0.02 in0.5 mm
08:57 PM 54.7°F12.6°C 49.3°F9.6°C 82% 2.0 mph NE3.2 kmh NE 5.0 mph8.0 kmh 30.13 in1020.3 mb 0.00 in0.0 mm 0.00 in0.0 mm 0.02 in0.5 mm
08:58 PM 54.7°F12.6°C 49.3°F9.6°C 82% 2.0 mph NE3.2 kmh NE 5.0 mph8.0 kmh 30.13 in1020.3 mb 0.00 in0.0 mm 0.00 in0.0 mm 0.02 in0.5 mm
08:59 PM 54.7°F12.6°C 49.3°F9.6°C 82% 2.0 mph NE3.2 kmh NE 5.0 mph8.0 kmh 30.13 in1020.3 mb 0.00 in0.0 mm 0.00 in0.0 mm 0.02 in0.5 mm
09:00 PM 54.5°F12.5°C 49.1°F9.5°C 82% 2.0 mph NE3.2 kmh NE 5.0 mph8.0 kmh 30.13 in1020.3 mb 0.00 in0.0 mm 0.00 in0.0 mm 0.02 in0.5 mm
09:01 PM 54.5°F12.5°C 49.1°F9.5°C 82% 2.0 mph NE3.2 kmh NE 5.0 mph8.0 kmh 30.13 in1020.3 mb 0.00 in0.0 mm 0.00 in0.0 mm 0.02 in0.5 mm
09:02 PM 54.5°F12.5°C 49.1°F9.5°C 82% 2.0 mph NE3.2 kmh NE 5.0 mph8.0 kmh 30.13 in1020.3 mb 0.00 in0.0 mm 0.00 in0.0 mm 0.02 in0.5 mm
09:03 PM 54.3°F12.4°C 48.9°F9.4°C 82% 2.0 mph NE3.2 kmh NE 5.0 mph8.0 kmh 30.13 in1020.3 mb 0.00 in0.0 mm 0.00 in0.0 mm 0.02 in0.5 mm
09:04 PM 54.3°F12.4°C 48.9°F9.4°C 82% 2.0 mph NE3.2 kmh NE 5.0 mph8.0 kmh 30.13 in1020.3 mb 0.00 in0.0 mm 0.00 in0.0 mm 0.02 in0.5 mm
09:05 PM 54.3°F12.4°C 49.3°F9.6°C 83% 2.0 mph NE3.2 kmh NE 4.0 mph6.4 kmh 30.13 in1020.3 mb 0.00 in0.0 mm 0.00 in0.0 mm 0.02 in0.5 mm
09:06 PM 54.3°F12.4°C 49.3°F9.6°C 83% 2.0 mph NE3.2 kmh NE 4.0 mph6.4 kmh 30.13 in1020.3 mb 0.00 in0.0 mm 0.00 in0.0 mm 0.02 in0.5 mm
09:07 PM 54.3°F12.4°C 49.3°F9.6°C 83% 2.0 mph NE3.2 kmh NE 4.0 mph6.4 kmh 30.13 in1020.3 mb 0.00 in0.0 mm 0.00 in0.0 mm 0.02 in0.5 mm
09:08 PM 54.3°F12.4°C 49.3°F9.6°C 83% 2.0 mph NE3.2 kmh NE 4.0 mph6.4 kmh 30.13 in1020.3 mb 0.00 in0.0 mm 0.00 in0.0 mm 0.02 in0.5 mm
09:09 PM 54.3°F12.4°C 49.3°F9.6°C 83% 2.0 mph NE3.2 kmh NE 4.0 mph6.4 kmh 30.13 in1020.3 mb 0.00 in0.0 mm 0.00 in0.0 mm 0.02 in0.5 mm
09:10 PM 54.1°F12.3°C 49.1°F9.5°C 83% 2.0 mph NE3.2 kmh NE 4.0 mph6.4 kmh 30.13 in1020.3 mb 0.00 in0.0 mm 0.00 in0.0 mm 0.02 in0.5 mm
09:11 PM 54.1°F12.3°C 49.1°F9.5°C 83% 2.0 mph NE3.2 kmh NE 3.0 mph4.8 kmh 30.13 in1020.3 mb 0.00 in0.0 mm 0.00 in0.0 mm 0.02 in0.5 mm
09:12 PM 54.1°F12.3°C 49.1°F9.5°C 83% 2.0 mph NE3.2 kmh NE 3.0 mph4.8 kmh 30.13 in1020.3 mb 0.00 in0.0 mm 0.00 in0.0 mm 0.02 in0.5 mm
09:13 PM 54.1°F12.3°C 49.1°F9.5°C 83% 2.0 mph NE3.2 kmh NE 3.0 mph4.8 kmh 30.13 in1020.3 mb 0.00 in0.0 mm 0.00 in0.0 mm 0.02 in0.5 mm
09:14 PM 54.1°F12.3°C 49.1°F9.5°C 83% 2.0 mph NE3.2 kmh NE 3.0 mph4.8 kmh 30.13 in1020.3 mb 0.00 in0.0 mm 0.00 in0.0 mm 0.02 in0.5 mm
09:15 PM 54.1°F12.3°C 49.1°F9.5°C 83% 2.0 mph NE3.2 kmh NE 3.0 mph4.8 kmh 30.13 in1020.3 mb 0.00 in0.0 mm 0.00 in0.0 mm 0.02 in0.5 mm
09:16 PM 54.1°F12.3°C 49.1°F9.5°C 83% 2.0 mph NE3.2 kmh NE 3.0 mph4.8 kmh 30.13 in1020.3 mb 0.00 in0.0 mm 0.00 in0.0 mm 0.02 in0.5 mm
09:17 PM 54.1°F12.3°C 49.4°F9.7°C 84% 1.0 mph NE1.6 kmh NE 3.0 mph4.8 kmh 30.13 in1020.3 mb 0.00 in0.0 mm 0.00 in0.0 mm 0.02 in0.5 mm
09:18 PM 54.0°F12.2°C 49.2°F9.6°C 84% 1.0 mph NE1.6 kmh NE 3.0 mph4.8 kmh 30.13 in1020.3 mb 0.00 in0.0 mm 0.00 in0.0 mm 0.02 in0.5 mm
09:19 PM 54.0°F12.2°C 49.2°F9.6°C 84% 1.0 mph NE1.6 kmh NE 3.0 mph4.8 kmh 30.13 in1020.3 mb 0.00 in0.0 mm 0.00 in0.0 mm 0.02 in0.5 mm
09:20 PM 54.0°F12.2°C 49.2°F9.6°C 84% 1.0 mph NE1.6 kmh NE 2.0 mph3.2 kmh 30.13 in1020.3 mb 0.00 in0.0 mm 0.00 in0.0 mm 0.02 in0.5 mm
09:21 PM 54.0°F12.2°C 49.2°F9.6°C 84% 1.0 mph NE1.6 kmh NE 2.0 mph3.2 kmh 30.13 in1020.3 mb 0.00 in0.0 mm 0.00 in0.0 mm 0.02 in0.5 mm
09:22 PM 54.0°F12.2°C 49.2°F9.6°C 84% 1.0 mph NE1.6 kmh NE 2.0 mph3.2 kmh 30.13 in1020.3 mb 0.00 in0.0 mm 0.00 in0.0 mm 0.02 in0.5 mm
09:23 PM 54.0°F12.2°C 49.2°F9.6°C 84% 1.0 mph NE1.6 kmh NE 2.0 mph3.2 kmh 30.13 in1020.3 mb 0.00 in0.0 mm 0.00 in0.0 mm 0.02 in0.5 mm
09:24 PM 53.8°F12.1°C 49.1°F9.5°C 84% 1.0 mph NE1.6 kmh NE 2.0 mph3.2 kmh 30.13 in1020.3 mb 0.00 in0.0 mm 0.00 in0.0 mm 0.02 in0.5 mm
09:25 PM 53.8°F12.1°C 49.1°F9.5°C 84% 1.0 mph NE1.6 kmh NE 2.0 mph3.2 kmh 30.13 in1020.3 mb 0.00 in0.0 mm 0.00 in0.0 mm 0.02 in0.5 mm
09:26 PM 53.8°F12.1°C 49.1°F9.5°C 84% 1.0 mph NE1.6 kmh NE 2.0 mph3.2 kmh 30.13 in1020.3 mb 0.00 in0.0 mm 0.00 in0.0 mm 0.02 in0.5 mm
09:27 PM 53.8°F12.1°C 49.1°F9.5°C 84% 1.0 mph NE1.6 kmh NE 2.0 mph3.2 kmh 30.13 in1020.3 mb 0.00 in0.0 mm 0.00 in0.0 mm 0.02 in0.5 mm
09:28 PM 53.8°F12.1°C 49.1°F9.5°C 84% Calm Calm 2.0 mph3.2 kmh 30.13 in1020.3 mb 0.00 in0.0 mm 0.00 in0.0 mm 0.02 in0.5 mm
09:29 PM 53.8°F12.1°C 49.4°F9.7°C 85% Calm Calm 2.0 mph3.2 kmh 30.13 in1020.3 mb 0.00 in0.0 mm 0.00 in0.0 mm 0.02 in0.5 mm
09:30 PM 53.8°F12.1°C 49.4°F9.7°C 85% Calm Calm 2.0 mph3.2 kmh 30.13 in1020.3 mb 0.00 in0.0 mm 0.00 in0.0 mm 0.02 in0.5 mm
09:31 PM 53.6°F12.0°C 49.2°F9.6°C 85% Calm Calm 2.0 mph3.2 kmh 30.13 in1020.3 mb 0.00 in0.0 mm 0.00 in0.0 mm 0.02 in0.5 mm
09:32 PM 53.6°F12.0°C 49.2°F9.6°C 85% Calm Calm 2.0 mph3.2 kmh 30.13 in1020.3 mb 0.00 in0.0 mm 0.00 in0.0 mm 0.02 in0.5 mm
09:33 PM 53.6°F12.0°C 49.2°F9.6°C 85% Calm Calm 1.0 mph1.6 kmh 30.13 in1020.3 mb 0.00 in0.0 mm 0.00 in0.0 mm 0.02 in0.5 mm
09:34 PM 53.6°F12.0°C 49.2°F9.6°C 85% Calm Calm 1.0 mph1.6 kmh 30.13 in1020.3 mb 0.00 in0.0 mm 0.00 in0.0 mm 0.02 in0.5 mm
09:35 PM 53.6°F12.0°C 49.2°F9.6°C 85% Calm Calm 1.0 mph1.6 kmh 30.13 in1020.3 mb 0.00 in0.0 mm 0.00 in0.0 mm 0.02 in0.5 mm
09:36 PM 53.6°F12.0°C 49.2°F9.6°C 85% Calm Calm 1.0 mph1.6 kmh 30.13 in1020.3 mb 0.00 in0.0 mm 0.00 in0.0 mm 0.02 in0.5 mm
09:37 PM 53.6°F12.0°C 49.2°F9.6°C 85% Calm Calm 2.0 mph3.2 kmh 30.13 in1020.3 mb 0.00 in0.0 mm 0.00 in0.0 mm 0.02 in0.5 mm
09:38 PM 53.4°F11.9°C 49.0°F9.4°C 85% Calm Calm 2.0 mph3.2 kmh 30.13 in1020.3 mb 0.00 in0.0 mm 0.00 in0.0 mm 0.02 in0.5 mm
09:39 PM 53.4°F11.9°C 49.0°F9.4°C 85% Calm Calm 2.0 mph3.2 kmh 30.13 in1020.3 mb 0.00 in0.0 mm 0.00 in0.0 mm 0.02 in0.5 mm
09:40 PM 53.4°F11.9°C 49.0°F9.4°C 85% Calm Calm 2.0 mph3.2 kmh 30.13 in1020.3 mb 0.00 in0.0 mm 0.00 in0.0 mm 0.02 in0.5 mm
09:41 PM 53.4°F11.9°C 49.0°F9.4°C 85% Calm Calm 2.0 mph3.2 kmh 30.13 in1020.3 mb 0.00 in0.0 mm 0.00 in0.0 mm 0.02 in0.5 mm
09:42 PM 53.4°F11.9°C 49.0°F9.4°C 85% Calm Calm 2.0 mph3.2 kmh 30.13 in1020.3 mb 0.00 in0.0 mm 0.00 in0.0 mm 0.02 in0.5 mm
09:43 PM 53.4°F11.9°C 49.0°F9.4°C 85% Calm Calm 2.0 mph3.2 kmh 30.13 in1020.3 mb 0.00 in0.0 mm 0.00 in0.0 mm 0.02 in0.5 mm
09:44 PM 53.2°F11.8°C 48.8°F9.3°C 85% Calm Calm 2.0 mph3.2 kmh 30.13 in1020.3 mb 0.00 in0.0 mm 0.00 in0.0 mm 0.02 in0.5 mm
09:45 PM 53.2°F11.8°C 49.2°F9.6°C 86% Calm Calm 2.0 mph3.2 kmh 30.13 in1020.3 mb 0.00 in0.0 mm 0.00 in0.0 mm 0.02 in0.5 mm
09:46 PM 53.2°F11.8°C 49.2°F9.6°C 86% Calm Calm 2.0 mph3.2 kmh 30.13 in1020.3 mb 0.00 in0.0 mm 0.00 in0.0 mm 0.02 in0.5 mm
09:47 PM 53.2°F11.8°C 49.2°F9.6°C 86% Calm Calm 2.0 mph3.2 kmh 30.13 in1020.3 mb 0.00 in0.0 mm 0.00 in0.0 mm 0.02 in0.5 mm
09:48 PM 53.2°F11.8°C 49.2°F9.6°C 86% Calm Calm 2.0 mph3.2 kmh 30.13 in1020.3 mb 0.00 in0.0 mm 0.00 in0.0 mm 0.02 in0.5 mm
09:49 PM 53.2°F11.8°C 49.2°F9.6°C 86% Calm Calm 2.0 mph3.2 kmh 30.13 in1020.3 mb 0.00 in0.0 mm 0.00 in0.0 mm 0.02 in0.5 mm
09:50 PM 53.2°F11.8°C 49.2°F9.6°C 86% Calm Calm 2.0 mph3.2 kmh 30.13 in1020.3 mb 0.00 in0.0 mm 0.00 in0.0 mm 0.02 in0.5 mm
09:51 PM 53.1°F11.7°C 49.0°F9.4°C 86% Calm Calm 2.0 mph3.2 kmh 30.13 in1020.3 mb 0.00 in0.0 mm 0.00 in0.0 mm 0.02 in0.5 mm
09:52 PM 53.1°F11.7°C 49.0°F9.4°C 86% Calm Calm 2.0 mph3.2 kmh 30.13 in1020.3 mb 0.00 in0.0 mm 0.00 in0.0 mm 0.02 in0.5 mm
09:53 PM 53.1°F11.7°C 49.0°F9.4°C 86% Calm Calm 2.0 mph3.2 kmh 30.13 in1020.3 mb 0.00 in0.0 mm 0.00 in0.0 mm 0.02 in0.5 mm
09:54 PM 53.1°F11.7°C 49.0°F9.4°C 86% Calm Calm 2.0 mph3.2 kmh 30.13 in1020.3 mb 0.00 in0.0 mm 0.00 in0.0 mm 0.02 in0.5 mm
09:55 PM 53.1°F11.7°C 49.0°F9.4°C 86% Calm Calm 3.0 mph4.8 kmh 30.13 in1020.3 mb 0.00 in0.0 mm 0.00 in0.0 mm 0.02 in0.5 mm
09:56 PM 53.1°F11.7°C 49.3°F9.6°C 87% Calm Calm 3.0 mph4.8 kmh 30.13 in1020.3 mb 0.00 in0.0 mm 0.00 in0.0 mm 0.02 in0.5 mm
09:57 PM 53.1°F11.7°C 49.3°F9.6°C 87% 1.0 mph NE1.6 kmh NE 3.0 mph4.8 kmh 30.13 in1020.3 mb 0.00 in0.0 mm 0.00 in0.0 mm 0.02 in0.5 mm
09:58 PM 53.1°F11.7°C 49.3°F9.6°C 87% 1.0 mph NE1.6 kmh NE 3.0 mph4.8 kmh 30.13 in1020.3 mb 0.00 in0.0 mm 0.00 in0.0 mm 0.02 in0.5 mm
09:59 PM 53.1°F11.7°C 49.3°F9.6°C 87% 1.0 mph NE1.6 kmh NE 3.0 mph4.8 kmh 30.13 in1020.3 mb 0.00 in0.0 mm 0.00 in0.0 mm 0.02 in0.5 mm
10:00 PM 53.1°F11.7°C 49.3°F9.6°C 87% 1.0 mph NE1.6 kmh NE 3.0 mph4.8 kmh 30.13 in1020.3 mb 0.00 in0.0 mm 0.00 in0.0 mm 0.02 in0.5 mm
10:01 PM 53.1°F11.7°C 49.3°F9.6°C 87% 1.0 mph NE1.6 kmh NE 3.0 mph4.8 kmh 30.13 in1020.3 mb 0.00 in0.0 mm 0.00 in0.0 mm 0.02 in0.5 mm
10:02 PM 53.1°F11.7°C 49.3°F9.6°C 87% 1.0 mph NE1.6 kmh NE 3.0 mph4.8 kmh 30.13 in1020.3 mb 0.00 in0.0 mm 0.00 in0.0 mm 0.02 in0.5 mm
10:03 PM 53.1°F11.7°C 49.3°F9.6°C 87% 1.0 mph NE1.6 kmh NE 3.0 mph4.8 kmh 30.13 in1020.3 mb 0.00 in0.0 mm 0.00 in0.0 mm 0.02 in0.5 mm
10:04 PM 53.1°F11.7°C 49.3°F9.6°C 87% 1.0 mph NE1.6 kmh NE 3.0 mph4.8 kmh 30.13 in1020.3 mb 0.00 in0.0 mm 0.00 in0.0 mm 0.02 in0.5 mm
10:05 PM 53.1°F11.7°C 49.3°F9.6°C 87% 1.0 mph NE1.6 kmh NE 3.0 mph4.8 kmh 30.13 in1020.3 mb 0.00 in0.0 mm 0.00 in0.0 mm 0.02 in0.5 mm
10:06 PM 53.1°F11.7°C 49.3°F9.6°C 87% 1.0 mph NE1.6 kmh NE 4.0 mph6.4 kmh 30.13 in1020.3 mb 0.00 in0.0 mm 0.00 in0.0 mm 0.02 in0.5 mm
10:07 PM 53.1°F11.7°C 49.3°F9.6°C 87% 1.0 mph NE1.6 kmh NE 4.0 mph6.4 kmh 30.13 in1020.3 mb 0.00 in0.0 mm 0.00 in0.0 mm 0.02 in0.5 mm
10:08 PM 53.1°F11.7°C 49.3°F9.6°C 87% 1.0 mph NE1.6 kmh NE 4.0 mph6.4 kmh 30.13 in1020.3 mb 0.00 in0.0 mm 0.00 in0.0 mm 0.02 in0.5 mm
10:09 PM 53.1°F11.7°C 49.3°F9.6°C 87% 1.0 mph NE1.6 kmh NE 4.0 mph6.4 kmh 30.13 in1020.3 mb 0.00 in0.0 mm 0.00 in0.0 mm 0.02 in0.5 mm
10:10 PM 53.1°F11.7°C 49.3°F9.6°C 87% 1.0 mph NE1.6 kmh NE 4.0 mph6.4 kmh 30.13 in1020.3 mb 0.00 in0.0 mm 0.00 in0.0 mm 0.02 in0.5 mm
10:11 PM 53.1°F11.7°C 49.3°F9.6°C 87% 2.0 mph NE3.2 kmh NE 4.0 mph6.4 kmh 30.13 in1020.3 mb 0.00 in0.0 mm 0.00 in0.0 mm 0.02 in0.5 mm
10:12 PM 53.2°F11.8°C 49.5°F9.7°C 87% 2.0 mph NE3.2 kmh NE 4.0 mph6.4 kmh 30.13 in1020.3 mb 0.00 in0.0 mm 0.00 in0.0 mm 0.02 in0.5 mm
10:13 PM 53.1°F11.7°C 49.3°F9.6°C 87% 2.0 mph NE3.2 kmh NE 4.0 mph6.4 kmh 30.13 in1020.3 mb 0.00 in0.0 mm 0.00 in0.0 mm 0.02 in0.5 mm
10:14 PM 53.2°F11.8°C 49.5°F9.7°C 87% 2.0 mph NE3.2 kmh NE 4.0 mph6.4 kmh 30.13 in1020.3 mb 0.00 in0.0 mm 0.00 in0.0 mm 0.02 in0.5 mm
10:15 PM 53.2°F11.8°C 49.5°F9.7°C 87% 2.0 mph NE3.2 kmh NE 4.0 mph6.4 kmh 30.13 in1020.3 mb 0.00 in0.0 mm 0.00 in0.0 mm 0.02 in0.5 mm
10:16 PM 53.1°F11.7°C 49.3°F9.6°C 87% 2.0 mph NE3.2 kmh NE 4.0 mph6.4 kmh 30.13 in1020.3 mb 0.00 in0.0 mm 0.00 in0.0 mm 0.02 in0.5 mm
10:17 PM 53.2°F11.8°C 49.5°F9.7°C 87% 2.0 mph NE3.2 kmh NE 4.0 mph6.4 kmh 30.13 in1020.3 mb 0.00 in0.0 mm 0.00 in0.0 mm 0.02 in0.5 mm
10:18 PM 53.2°F11.8°C 49.5°F9.7°C 87% 2.0 mph NE3.2 kmh NE 4.0 mph6.4 kmh 30.13 in1020.3 mb 0.00 in0.0 mm 0.00 in0.0 mm 0.02 in0.5 mm
10:19 PM 53.2°F11.8°C 49.5°F9.7°C 87% 2.0 mph NE3.2 kmh NE 4.0 mph6.4 kmh 30.13 in1020.3 mb 0.00 in0.0 mm 0.00 in0.0 mm 0.02 in0.5 mm
10:20 PM 53.2°F11.8°C 49.5°F9.7°C 87% 2.0 mph NE3.2 kmh NE 4.0 mph6.4 kmh 30.13 in1020.3 mb 0.00 in0.0 mm 0.00 in0.0 mm 0.02 in0.5 mm
10:21 PM 53.1°F11.7°C 49.3°F9.6°C 87% 2.0 mph NE3.2 kmh NE 4.0 mph6.4 kmh 30.13 in1020.3 mb 0.00 in0.0 mm 0.00 in0.0 mm 0.02 in0.5 mm
10:22 PM 53.1°F11.7°C 49.3°F9.6°C 87% 2.0 mph NE3.2 kmh NE 4.0 mph6.4 kmh 30.13 in1020.3 mb 0.00 in0.0 mm 0.00 in0.0 mm 0.02 in0.5 mm
10:23 PM 53.1°F11.7°C 49.3°F9.6°C 87% 2.0 mph NE3.2 kmh NE 4.0 mph6.4 kmh 30.13 in1020.3 mb 0.00 in0.0 mm 0.00 in0.0 mm 0.02 in0.5 mm
10:24 PM 53.1°F11.7°C 49.3°F9.6°C 87% 1.0 mph NE1.6 kmh NE 4.0 mph6.4 kmh 30.13 in1020.3 mb 0.00 in0.0 mm 0.00 in0.0 mm 0.02 in0.5 mm
10:25 PM 53.1°F11.7°C 49.3°F9.6°C 87% 1.0 mph NE1.6 kmh NE 4.0 mph6.4 kmh 30.13 in1020.3 mb 0.00 in0.0 mm 0.00 in0.0 mm 0.02 in0.5 mm
10:26 PM 53.1°F11.7°C 49.3°F9.6°C 87% 1.0 mph NE1.6 kmh NE 4.0 mph6.4 kmh 30.13 in1020.3 mb 0.00 in0.0 mm 0.00 in0.0 mm 0.02 in0.5 mm
10:27 PM 53.1°F11.7°C 49.3°F9.6°C 87% 1.0 mph NE1.6 kmh NE 4.0 mph6.4 kmh 30.13 in1020.3 mb 0.00 in0.0 mm 0.00 in0.0 mm 0.02 in0.5 mm
10:28 PM 53.1°F11.7°C 49.3°F9.6°C 87% 1.0 mph NE1.6 kmh NE 3.0 mph4.8 kmh 30.13 in1020.3 mb 0.00 in0.0 mm 0.00 in0.0 mm 0.02 in0.5 mm